owner,sensor,date,latitude,longitude,vertical_datum,wind_speed,wind_to_direction,wind_speed_of_gust,qcFlag 
TCOON,ioos:station:TCOON:006:1,2009-03-01T00:00:00Z,27.8217,-97.2040,0.0,2.7,347.0,5.8,'11111222,11111222,11111222' 
TCOON,ioos:station:TCOON:006:1,2009-03-01T02:00:00Z,27.8217,-97.2040,0.0,3.5,350.0,5.1,'11111222,11111222,11111222' 
TCOON,ioos:station:TCOON:006:1,2009-03-01T03:00:00Z,27.8217,-97.2040,0.0,1.7,348.0,3.0,'11111222,11111222,11111222' 
TCOON,ioos:station:TCOON:006:1,2009-03-01T04:00:00Z,27.8217,-97.2040,0.0,3.2,348.0,5.3,'11111222,11111222,11111222' 
TCOON,ioos:station:TCOON:006:1,2009-03-01T05:00:00Z,27.8217,-97.2040,0.0,2.3,360.0,8.0,'11111222,11144222,11111222' 
TCOON,ioos:station:TCOON:006:1,2009-03-01T06:00:00Z,27.8217,-97.2040,0.0,3.8,352.0,6.9,'11111222,11111222,11111222' 
TCOON,ioos:station:TCOON:006:1,2009-03-01T07:00:00Z,27.8217,-97.2040,0.0,3.6,344.0,5.4,'11111222,11111222,11111222' 
TCOON,ioos:station:TCOON:006:1,2009-03-01T08:00:00Z,27.8217,-97.2040,0.0,2.7,347.0,5.0,'11111222,11111222,11111222' 
TCOON,ioos:station:TCOON:006:1,2009-03-01T09:00:00Z,27.8217,-97.2040,0.0,4.1,342.0,6.3,'11111222,11111222,11111222' 
TCOON,ioos:station:TCOON:006:1,2009-03-01T10:00:00Z,27.8217,-97.2040,0.0,3.9,345.0,5.4,'11111222,11111222,11111222' 
TCOON,ioos:station:TCOON:006:1,2009-03-01T11:00:00Z,27.8217,-97.2040,0.0,3.0,350.0,7.4,'11111222,11111222,11111222' 
TCOON,ioos:station:TCOON:006:1,2009-03-01T12:00:00Z,27.8217,-97.2040,0.0,3.0,338.0,5.0,'11111222,11111222,11111222' 
TCOON,ioos:station:TCOON:006:1,2009-03-01T13:00:00Z,27.8217,-97.2040,0.0,3.4,339.0,4.3,'11111222,11111222,11111222' 
TCOON,ioos:station:TCOON:006:1,2009-03-01T14:00:00Z,27.8217,-97.2040,0.0,4.3,346.0,8.1,'11111222,11111222,11111222' 
TCOON,ioos:station:TCOON:006:1,2009-03-01T15:00:00Z,27.8217,-97.2040,0.0,5.6,338.0,8.1,'11111222,11111222,11111222' 
TCOON,ioos:station:TCOON:006:1,2009-03-01T16:00:00Z,27.8217,-97.2040,0.0,5.2,349.0,7.9,'11111222,11111222,11111222' 
TCOON,ioos:station:TCOON:006:1,2009-03-01T17:00:00Z,27.8217,-97.2040,0.0,2.9,1.0,6.9,'11111222,11111222,11111222' 
TCOON,ioos:station:TCOON:006:1,2009-03-01T18:00:00Z,27.8217,-97.2040,0.0,2.6,10.0,8.0,'11111222,11111222,11111222' 
TCOON,ioos:station:TCOON:006:1,2009-03-01T19:00:00Z,27.8217,-97.2040,0.0,4.4,347.0,6.5,'11111222,11111222,11111222' 
TCOON,ioos:station:TCOON:006:1,2009-03-01T20:00:00Z,27.8217,-97.2040,0.0,2.6,2.0,7.6,'11111222,11111222,11111222' 
TCOON,ioos:station:TCOON:006:1,2009-03-01T21:00:00Z,27.8217,-97.2040,0.0,2.0,355.0,4.7,'11111222,11111222,11111222' 
TCOON,ioos:station:TCOON:006:1,2009-03-01T22:00:00Z,27.8217,-97.2040,0.0,1.4,360.0,5.6,'11111222,11144222,11111222' 
TCOON,ioos:station:TCOON:006:1,2009-03-01T23:00:00Z,27.8217,-97.2040,0.0,2.0,20.0,3.9,'11111222,11111222,11111222' 
TCOON,ioos:station:TCOON:006:1,2009-03-02T00:00:00Z,27.8217,-97.2040,0.0,0.3,37.0,1.0,'11111222,11111222,11111222' 
TCOON,ioos:station:TCOON:006:1,2009-03-02T01:00:00Z,27.8217,-97.2040,0.0,0.4,8.0,1.3,'11111222,11111222,11111222' 
TCOON,ioos:station:TCOON:006:1,2009-03-02T02:00:00Z,27.8217,-97.2040,0.0,0.7,10.0,1.5,'11111222,11111222,11111222' 
TCOON,ioos:station:TCOON:006:1,2009-03-02T03:00:00Z,27.8217,-97.2040,0.0,1.0,12.0,2.2,'11111222,11111222,11111222' 
TCOON,ioos:station:TCOON:006:1,2009-03-02T04:00:00Z,27.8217,-97.2040,0.0,0.7,19.0,1.5,'11111222,11111222,11111222' 
TCOON,ioos:station:TCOON:006:1,2009-03-02T05:00:00Z,27.8217,-97.2040,0.0,0.8,11.0,1.5,'11111222,11111222,11111222' 
TCOON,ioos:station:TCOON:006:1,2009-03-02T06:00:00Z,27.8217,-97.2040,0.0,1.0,8.0,1.8,'11111222,11111222,11111222' 
TCOON,ioos:station:TCOON:006:1,2009-03-02T07:00:00Z,27.8217,-97.2040,0.0,1.4,351.0,1.8,'11111222,11111222,11111222' 
TCOON,ioos:station:TCOON:006:1,2009-03-02T08:00:00Z,27.8217,-97.2040,0.0,2.1,340.0,3.0,'11111222,11111222,11111222' 
TCOON,ioos:station:TCOON:006:1,2009-03-02T09:00:00Z,27.8217,-97.2040,0.0,1.4,1.0,2.1,'11111222,11111222,11111222' 
TCOON,ioos:station:TCOON:006:1,2009-03-02T10:00:00Z,27.8217,-97.2040,0.0,1.4,360.0,2.3,'11111222,11144222,11111222' 
TCOON,ioos:station:TCOON:006:1,2009-03-02T11:00:00Z,27.8217,-97.2040,0.0,1.6,7.0,3.0,'11111222,11111222,11111222' 
TCOON,ioos:station:TCOON:006:1,2009-03-02T12:00:00Z,27.8217,-97.2040,0.0,1.6,3.0,3.1,'11111222,11111222,11111222' 
TCOON,ioos:station:TCOON:006:1,2009-03-02T13:00:00Z,27.8217,-97.2040,0.0,1.4,8.0,2.4,'11111222,11111222,11111222' 
TCOON,ioos:station:TCOON:006:1,2009-03-02T14:00:00Z,27.8217,-97.2040,0.0,2.7,32.0,4.3,'11111222,11111222,11111222' 
TCOON,ioos:station:TCOON:006:1,2009-03-02T15:00:00Z,27.8217,-97.2040,0.0,1.9,63.0,4.0,'11111222,11111222,11111222' 
TCOON,ioos:station:TCOON:006:1,2009-03-02T16:00:00Z,27.8217,-97.2040,0.0,1.2,94.0,3.0,'11111222,11111222,11111222' 
TCOON,ioos:station:TCOON:006:1,2009-03-02T17:00:00Z,27.8217,-97.2040,0.0,2.0,93.0,4.1,'11111222,11111222,11111222' 
TCOON,ioos:station:TCOON:006:1,2009-03-02T18:00:00Z,27.8217,-97.2040,0.0,4.1,114.0,5.0,'11111222,11111222,11111222' 
TCOON,ioos:station:TCOON:006:1,2009-03-02T19:00:00Z,27.8217,-97.2040,0.0,3.1,91.0,5.1,'11111222,11111222,11111222' 
TCOON,ioos:station:TCOON:006:1,2009-03-02T20:00:00Z,27.8217,-97.2040,0.0,4.9,103.0,5.9,'11111222,11111222,11111222' 
TCOON,ioos:station:TCOON:006:1,2009-03-02T21:00:00Z,27.8217,-97.2040,0.0,4.5,95.0,6.4,'11111222,11111222,11111222' 
TCOON,ioos:station:TCOON:006:1,2009-03-02T22:00:00Z,27.8217,-97.2040,0.0,4.0,95.0,6.1,'11111222,11111222,11111222' 
TCOON,ioos:station:TCOON:006:1,2009-03-02T23:00:00Z,27.8217,-97.2040,0.0,4.3,100.0,6.5,'11111222,11111222,11111222' 
TCOON,ioos:station:TCOON:006:1,2009-03-03T00:00:00Z,27.8217,-97.2040,0.0,5.1,111.0,7.0,'11111222,11111222,11111222' 
TCOON,ioos:station:TCOON:006:1,2009-03-03T01:00:00Z,27.8217,-97.2040,0.0,4.9,106.0,6.5,'11111222,11111222,11111222' 
TCOON,ioos:station:TCOON:006:1,2009-03-03T02:00:00Z,27.8217,-97.2040,0.0,5.1,125.0,6.9,'11111222,11111222,11111222' 
TCOON,ioos:station:TCOON:006:1,2009-03-03T03:00:00Z,27.8217,-97.2040,0.0,5.2,123.0,6.6,'11111222,11111222,11111222' 
TCOON,ioos:station:TCOON:006:1,2009-03-03T04:00:00Z,27.8217,-97.2040,0.0,4.5,128.0,6.0,'11111222,11111222,11111222' 
TCOON,ioos:station:TCOON:006:1,2009-03-03T05:00:00Z,27.8217,-97.2040,0.0,3.7,133.0,5.3,'11111222,11111222,11111222' 
TCOON,ioos:station:TCOON:006:1,2009-03-03T06:00:00Z,27.8217,-97.2040,0.0,3.5,142.0,4.5,'11111222,11111222,11111222' 
TCOON,ioos:station:TCOON:006:1,2009-03-03T07:00:00Z,27.8217,-97.2040,0.0,4.0,143.0,5.2,'11111222,11111222,11111222' 
TCOON,ioos:station:TCOON:006:1,2009-03-03T08:00:00Z,27.8217,-97.2040,0.0,3.5,146.0,4.5,'11111222,11111222,11111222' 
TCOON,ioos:station:TCOON:006:1,2009-03-03T09:00:00Z,27.8217,-97.2040,0.0,2.1,146.0,2.4,'11111222,11111222,11111222' 
TCOON,ioos:station:TCOON:006:1,2009-03-03T10:00:00Z,27.8217,-97.2040,0.0,1.8,127.0,2.2,'11111222,11111222,11111222' 
TCOON,ioos:station:TCOON:006:1,2009-03-03T11:00:00Z,27.8217,-97.2040,0.0,1.1,70.0,1.4,'11111222,11111222,11111222' 
TCOON,ioos:station:TCOON:006:1,2009-03-03T12:00:00Z,27.8217,-97.2040,0.0,1.4,35.0,2.3,'11111222,11111222,11111222' 
TCOON,ioos:station:TCOON:006:1,2009-03-03T13:00:00Z,27.8217,-97.2040,0.0,2.2,96.0,3.3,'11111222,11111222,11111222' 
TCOON,ioos:station:TCOON:006:1,2009-03-03T14:00:00Z,27.8217,-97.2040,0.0,3.2,112.0,4.4,'11111222,11111222,11111222' 
TCOON,ioos:station:TCOON:006:1,2009-03-03T15:00:00Z,27.8217,-97.2040,0.0,3.8,114.0,5.2,'11111222,11111222,11111222' 
TCOON,ioos:station:TCOON:006:1,2009-03-03T16:00:00Z,27.8217,-97.2040,0.0,4.1,112.0,5.9,'11111222,11111222,11111222' 
TCOON,ioos:station:TCOON:006:1,2009-03-03T17:00:00Z,27.8217,-97.2040,0.0,4.8,111.0,7.0,'11111222,11111222,11111222' 
TCOON,ioos:station:TCOON:006:1,2009-03-03T18:00:00Z,27.8217,-97.2040,0.0,4.4,110.0,6.7,'11111222,11111222,11111222' 
TCOON,ioos:station:TCOON:006:1,2009-03-03T19:00:00Z,27.8217,-97.2040,0.0,5.4,110.0,7.0,'11111222,11111222,11111222' 
TCOON,ioos:station:TCOON:006:1,2009-03-03T20:00:00Z,27.8217,-97.2040,0.0,6.1,118.0,7.5,'11111222,11111222,11111222' 
TCOON,ioos:station:TCOON:006:1,2009-03-03T21:00:00Z,27.8217,-97.2040,0.0,5.8,126.0,7.6,'11111222,11111222,11111222' 
TCOON,ioos:station:TCOON:006:1,2009-03-03T22:00:00Z,27.8217,-97.2040,0.0,5.8,125.0,7.0,'11111222,11111222,11111222' 
TCOON,ioos:station:TCOON:006:1,2009-03-03T23:00:00Z,27.8217,-97.2040,0.0,5.5,126.0,6.7,'11111222,11111222,11111222' 
TCOON,ioos:station:TCOON:006:1,2009-03-04T00:00:00Z,27.8217,-97.2040,0.0,4.7,124.0,6.5,'11111222,11111222,11111222' 
TCOON,ioos:station:TCOON:006:1,2009-03-04T01:00:00Z,27.8217,-97.2040,0.0,4.7,136.0,7.1,'11111222,11111222,11111222' 
TCOON,ioos:station:TCOON:006:1,2009-03-04T02:00:00Z,27.8217,-97.2040,0.0,5.7,146.0,7.2,'11111222,11111222,11111222' 
TCOON,ioos:station:TCOON:006:1,2009-03-04T03:00:00Z,27.8217,-97.2040,0.0,4.9,144.0,6.6,'11111222,11111222,11111222' 
TCOON,ioos:station:TCOON:006:1,2009-03-04T04:00:00Z,27.8217,-97.2040,0.0,4.7,145.0,5.6,'11111222,11111222,11111222' 
TCOON,ioos:station:TCOON:006:1,2009-03-04T05:00:00Z,27.8217,-97.2040,0.0,4.3,151.0,6.0,'11111222,11111222,11111222' 
TCOON,ioos:station:TCOON:006:1,2009-03-04T06:00:00Z,27.8217,-97.2040,0.0,4.9,156.0,6.0,'11111222,11111222,11111222' 
TCOON,ioos:station:TCOON:006:1,2009-03-04T07:00:00Z,27.8217,-97.2040,0.0,6.2,156.0,8.3,'11111222,11111222,11111222' 
TCOON,ioos:station:TCOON:006:1,2009-03-04T08:00:00Z,27.8217,-97.2040,0.0,4.9,161.0,6.3,'11111222,11111222,11111222' 
TCOON,ioos:station:TCOON:006:1,2009-03-04T09:00:00Z,27.8217,-97.2040,0.0,5.7,169.0,6.6,'11111222,11111222,11111222' 
TCOON,ioos:station:TCOON:006:1,2009-03-04T10:00:00Z,27.8217,-97.2040,0.0,4.6,162.0,6.1,'11111222,11111222,11111222' 
TCOON,ioos:station:TCOON:006:1,2009-03-04T11:00:00Z,27.8217,-97.2040,0.0,4.5,150.0,6.2,'11111222,11111222,11111222' 
TCOON,ioos:station:TCOON:006:1,2009-03-04T12:00:00Z,27.8217,-97.2040,0.0,4.5,142.0,6.1,'11111222,11111222,11111222' 
TCOON,ioos:station:TCOON:006:1,2009-03-04T13:00:00Z,27.8217,-97.2040,0.0,4.1,141.0,5.4,'11111222,11111222,11111222' 
TCOON,ioos:station:TCOON:006:1,2009-03-04T14:00:00Z,27.8217,-97.2040,0.0,5.4,144.0,7.2,'11111222,11111222,11111222' 
TCOON,ioos:station:TCOON:006:1,2009-03-04T15:00:00Z,27.8217,-97.2040,0.0,5.1,151.0,7.1,'11111222,11111222,11111222' 
TCOON,ioos:station:TCOON:006:1,2009-03-04T16:00:00Z,27.8217,-97.2040,0.0,6.4,150.0,8.3,'11111222,11111222,11111222' 
TCOON,ioos:station:TCOON:006:1,2009-03-04T17:00:00Z,27.8217,-97.2040,0.0,7.1,151.0,9.2,'11111222,11111222,11111222' 
TCOON,ioos:station:TCOON:006:1,2009-03-04T18:00:00Z,27.8217,-97.2040,0.0,7.7,144.0,9.5,'11111222,11111222,11111222' 
TCOON,ioos:station:TCOON:006:1,2009-03-04T19:00:00Z,27.8217,-97.2040,0.0,6.8,140.0,9.8,'11111222,11111222,11111222' 
TCOON,ioos:station:TCOON:006:1,2009-03-04T20:00:00Z,27.8217,-97.2040,0.0,7.1,134.0,10.1,'11111222,11111222,11111222' 
TCOON,ioos:station:TCOON:006:1,2009-03-04T21:00:00Z,27.8217,-97.2040,0.0,7.5,134.0,9.6,'11111222,11111222,11111222' 
TCOON,ioos:station:TCOON:006:1,2009-03-04T22:00:00Z,27.8217,-97.2040,0.0,6.2,134.0,7.9,'11111222,11111222,11111222' 
TCOON,ioos:station:TCOON:006:1,2009-03-04T23:00:00Z,27.8217,-97.2040,0.0,6.2,128.0,7.9,'11111222,11111222,11111222' 
TCOON,ioos:station:TCOON:006:1,2009-03-05T00:00:00Z,27.8217,-97.2040,0.0,5.6,134.0,7.4,'11111222,11111222,11111222' 
TCOON,ioos:station:TCOON:006:1,2009-03-05T01:00:00Z,27.8217,-97.2040,0.0,5.6,134.0,7.7,'11111222,11111222,11111222' 
TCOON,ioos:station:TCOON:006:1,2009-03-05T02:00:00Z,27.8217,-97.2040,0.0,5.7,136.0,7.7,'11111222,11111222,11111222' 
TCOON,ioos:station:TCOON:006:1,2009-03-05T03:00:00Z,27.8217,-97.2040,0.0,5.9,142.0,8.2,'11111222,11111222,11111222' 
TCOON,ioos:station:TCOON:006:1,2009-03-05T04:00:00Z,27.8217,-97.2040,0.0,4.9,148.0,6.7,'11111222,11111222,11111222' 
TCOON,ioos:station:TCOON:006:1,2009-03-05T05:00:00Z,27.8217,-97.2040,0.0,6.4,149.0,8.0,'11111222,11111222,11111222' 
TCOON,ioos:station:TCOON:006:1,2009-03-05T06:00:00Z,27.8217,-97.2040,0.0,7.7,147.0,9.0,'11111222,11111222,11111222' 
TCOON,ioos:station:TCOON:006:1,2009-03-05T07:00:00Z,27.8217,-97.2040,0.0,6.0,151.0,7.7,'11111222,11111222,11111222' 
TCOON,ioos:station:TCOON:006:1,2009-03-05T08:00:00Z,27.8217,-97.2040,0.0,5.7,148.0,7.7,'11111222,11111222,11111222' 
TCOON,ioos:station:TCOON:006:1,2009-03-05T09:00:00Z,27.8217,-97.2040,0.0,5.8,146.0,7.8,'11111222,11111222,11111222' 
TCOON,ioos:station:TCOON:006:1,2009-03-05T10:00:00Z,27.8217,-97.2040,0.0,5.1,143.0,6.8,'11111222,11111222,11111222' 
TCOON,ioos:station:TCOON:006:1,2009-03-05T11:00:00Z,27.8217,-97.2040,0.0,3.7,138.0,5.1,'11111222,11111222,11111222' 
TCOON,ioos:station:TCOON:006:1,2009-03-05T12:00:00Z,27.8217,-97.2040,0.0,3.7,138.0,4.6,'11111222,11111222,11111222' 
TCOON,ioos:station:TCOON:006:1,2009-03-05T13:00:00Z,27.8217,-97.2040,0.0,4.0,130.0,5.3,'11111222,11111222,11111222' 
TCOON,ioos:station:TCOON:006:1,2009-03-05T14:00:00Z,27.8217,-97.2040,0.0,5.7,147.0,7.2,'11111222,11111222,11111222' 
TCOON,ioos:station:TCOON:006:1,2009-03-05T15:00:00Z,27.8217,-97.2040,0.0,5.6,150.0,7.4,'11111222,11111222,11111222' 
TCOON,ioos:station:TCOON:006:1,2009-03-05T16:00:00Z,27.8217,-97.2040,0.0,6.1,141.0,7.7,'11111222,11111222,11111222' 
TCOON,ioos:station:TCOON:006:1,2009-03-05T17:00:00Z,27.8217,-97.2040,0.0,5.3,135.0,6.9,'11111222,11111222,11111222' 
TCOON,ioos:station:TCOON:006:1,2009-03-05T18:00:00Z,27.8217,-97.2040,0.0,7.1,143.0,9.5,'11111222,11111222,11111222' 
TCOON,ioos:station:TCOON:006:1,2009-03-05T19:00:00Z,27.8217,-97.2040,0.0,6.9,129.0,9.9,'11111222,11111222,11111222' 
TCOON,ioos:station:TCOON:006:1,2009-03-05T20:00:00Z,27.8217,-97.2040,0.0,7.3,131.0,10.2,'11111222,11111222,11111222' 
TCOON,ioos:station:TCOON:006:1,2009-03-05T21:00:00Z,27.8217,-97.2040,0.0,7.6,124.0,9.5,'11111222,11111222,11111222' 
TCOON,ioos:station:TCOON:006:1,2009-03-05T22:00:00Z,27.8217,-97.2040,0.0,7.5,124.0,9.7,'11111222,11111222,11111222' 
TCOON,ioos:station:TCOON:006:1,2009-03-05T23:00:00Z,27.8217,-97.2040,0.0,4.6,122.0,7.8,'11111222,11111222,11111222' 
TCOON,ioos:station:TCOON:006:1,2009-03-06T00:00:00Z,27.8217,-97.2040,0.0,5.2,124.0,7.6,'11111222,11111222,11111222' 
TCOON,ioos:station:TCOON:006:1,2009-03-06T01:00:00Z,27.8217,-97.2040,0.0,3.5,121.0,6.0,'11111222,11111222,11111222' 
TCOON,ioos:station:TCOON:006:1,2009-03-06T02:00:00Z,27.8217,-97.2040,0.0,5.4,127.0,6.7,'11111222,11111222,11111222' 
TCOON,ioos:station:TCOON:006:1,2009-03-06T03:00:00Z,27.8217,-97.2040,0.0,4.1,131.0,6.6,'11111222,11111222,11111222' 
TCOON,ioos:station:TCOON:006:1,2009-03-06T04:00:00Z,27.8217,-97.2040,0.0,4.7,133.0,6.8,'11111222,11111222,11111222' 
TCOON,ioos:station:TCOON:006:1,2009-03-06T05:00:00Z,27.8217,-97.2040,0.0,4.7,139.0,6.4,'11111222,11111222,11111222' 
TCOON,ioos:station:TCOON:006:1,2009-03-06T06:00:00Z,27.8217,-97.2040,0.0,3.8,140.0,6.0,'11111222,11111222,11111222' 
TCOON,ioos:station:TCOON:006:1,2009-03-06T07:00:00Z,27.8217,-97.2040,0.0,4.8,145.0,6.4,'11111222,11111222,11111222' 
TCOON,ioos:station:TCOON:006:1,2009-03-06T08:00:00Z,27.8217,-97.2040,0.0,5.1,146.0,6.8,'11111222,11111222,11111222' 
TCOON,ioos:station:TCOON:006:1,2009-03-06T09:00:00Z,27.8217,-97.2040,0.0,5.7,148.0,8.1,'11111222,11111222,11111222' 
TCOON,ioos:station:TCOON:006:1,2009-03-06T10:00:00Z,27.8217,-97.2040,0.0,5.4,148.0,7.0,'11111222,11111222,11111222' 
TCOON,ioos:station:TCOON:006:1,2009-03-06T11:00:00Z,27.8217,-97.2040,0.0,5.4,146.0,6.9,'11111222,11111222,11111222' 
TCOON,ioos:station:TCOON:006:1,2009-03-06T12:00:00Z,27.8217,-97.2040,0.0,5.5,148.0,7.4,'11111222,11111222,11111222' 
TCOON,ioos:station:TCOON:006:1,2009-03-06T13:00:00Z,27.8217,-97.2040,0.0,6.1,146.0,7.8,'11111222,11111222,11111222' 
TCOON,ioos:station:TCOON:006:1,2009-03-06T14:00:00Z,27.8217,-97.2040,0.0,6.2,146.0,8.3,'11111222,11111222,11111222' 
TCOON,ioos:station:TCOON:006:1,2009-03-06T15:00:00Z,27.8217,-97.2040,0.0,8.2,145.0,9.6,'11111222,11111222,11111222' 
TCOON,ioos:station:TCOON:006:1,2009-03-06T16:00:00Z,27.8217,-97.2040,0.0,6.9,147.0,9.3,'11111222,11111222,11111222' 
TCOON,ioos:station:TCOON:006:1,2009-03-06T17:00:00Z,27.8217,-97.2040,0.0,6.3,147.0,8.7,'11111222,11111222,11111222' 
TCOON,ioos:station:TCOON:006:1,2009-03-06T18:00:00Z,27.8217,-97.2040,0.0,7.5,147.0,9.4,'11111222,11111222,11111222' 
TCOON,ioos:station:TCOON:006:1,2009-03-06T19:00:00Z,27.8217,-97.2040,0.0,5.5,138.0,9.5,'11111222,11111222,11111222' 
TCOON,ioos:station:TCOON:006:1,2009-03-06T20:00:00Z,27.8217,-97.2040,0.0,6.0,129.0,8.3,'11111222,11111222,11111222' 
TCOON,ioos:station:TCOON:006:1,2009-03-06T21:00:00Z,27.8217,-97.2040,0.0,5.7,120.0,8.8,'11111222,11111222,11111222' 
TCOON,ioos:station:TCOON:006:1,2009-03-06T22:00:00Z,27.8217,-97.2040,0.0,5.1,124.0,7.7,'11111222,11111222,11111222' 
TCOON,ioos:station:TCOON:006:1,2009-03-06T23:00:00Z,27.8217,-97.2040,0.0,5.9,123.0,8.9,'11111222,11111222,11111222' 
TCOON,ioos:station:TCOON:006:1,2009-03-07T00:00:00Z,27.8217,-97.2040,0.0,6.5,124.0,8.7,'11111222,11111222,11111222' 
TCOON,ioos:station:TCOON:006:1,2009-03-07T01:00:00Z,27.8217,-97.2040,0.0,5.5,118.0,7.8,'11111222,11111222,11111222' 
TCOON,ioos:station:TCOON:006:1,2009-03-07T02:00:00Z,27.8217,-97.2040,0.0,5.9,121.0,7.8,'11111222,11111222,11111222' 
TCOON,ioos:station:TCOON:006:1,2009-03-07T03:00:00Z,27.8217,-97.2040,0.0,5.8,128.0,8.6,'11111222,11111222,11111222' 
TCOON,ioos:station:TCOON:006:1,2009-03-07T04:00:00Z,27.8217,-97.2040,0.0,6.1,133.0,8.8,'11111222,11111222,11111222' 
TCOON,ioos:station:TCOON:006:1,2009-03-07T05:00:00Z,27.8217,-97.2040,0.0,6.4,133.0,8.2,'11111222,11111222,11111222' 
TCOON,ioos:station:TCOON:006:1,2009-03-07T06:00:00Z,27.8217,-97.2040,0.0,6.3,134.0,8.8,'11111222,11111222,11111222' 
TCOON,ioos:station:TCOON:006:1,2009-03-07T07:00:00Z,27.8217,-97.2040,0.0,7.1,133.0,9.4,'11111222,11111222,11111222' 
TCOON,ioos:station:TCOON:006:1,2009-03-07T08:00:00Z,27.8217,-97.2040,0.0,7.5,127.0,10.8,'11111222,11111222,11111222' 
TCOON,ioos:station:TCOON:006:1,2009-03-07T09:00:00Z,27.8217,-97.2040,0.0,6.3,138.0,8.7,'11111222,11111222,11111222' 
TCOON,ioos:station:TCOON:006:1,2009-03-07T10:00:00Z,27.8217,-97.2040,0.0,6.2,139.0,7.5,'11111222,11111222,11111222' 
TCOON,ioos:station:TCOON:006:1,2009-03-07T11:00:00Z,27.8217,-97.2040,0.0,4.6,135.0,6.4,'11111222,11111222,11111222' 
TCOON,ioos:station:TCOON:006:1,2009-03-07T12:00:00Z,27.8217,-97.2040,0.0,4.3,140.0,6.2,'11111222,11111222,11111222' 
TCOON,ioos:station:TCOON:006:1,2009-03-07T13:00:00Z,27.8217,-97.2040,0.0,4.1,136.0,6.0,'11111222,11111222,11111222' 
TCOON,ioos:station:TCOON:006:1,2009-03-07T14:00:00Z,27.8217,-97.2040,0.0,6.0,145.0,7.6,'11111222,11111222,11111222' 
TCOON,ioos:station:TCOON:006:1,2009-03-07T15:00:00Z,27.8217,-97.2040,0.0,6.3,146.0,8.2,'11111222,11111222,11111222' 
TCOON,ioos:station:TCOON:006:1,2009-03-07T16:00:00Z,27.8217,-97.2040,0.0,7.9,147.0,9.6,'11111222,11111222,11111222' 
TCOON,ioos:station:TCOON:006:1,2009-03-07T17:00:00Z,27.8217,-97.2040,0.0,7.5,144.0,10.2,'11111222,11111222,11111222' 
TCOON,ioos:station:TCOON:006:1,2009-03-07T18:00:00Z,27.8217,-97.2040,0.0,8.7,142.0,11.3,'11111222,11111222,11111222' 
TCOON,ioos:station:TCOON:006:1,2009-03-07T19:00:00Z,27.8217,-97.2040,0.0,7.0,136.0,9.0,'11111222,11111222,11111222' 
TCOON,ioos:station:TCOON:006:1,2009-03-07T20:00:00Z,27.8217,-97.2040,0.0,7.3,134.0,10.8,'11111222,11111222,11111222' 
TCOON,ioos:station:TCOON:006:1,2009-03-07T21:00:00Z,27.8217,-97.2040,0.0,7.6,127.0,10.0,'11111222,11111222,11111222' 
TCOON,ioos:station:TCOON:006:1,2009-03-07T22:00:00Z,27.8217,-97.2040,0.0,8.4,118.0,10.3,'11111222,11111222,11111222' 
TCOON,ioos:station:TCOON:006:1,2009-03-07T23:00:00Z,27.8217,-97.2040,0.0,6.3,126.0,8.8,'11111222,11111222,11111222' 
TCOON,ioos:station:TCOON:006:1,2009-03-08T00:00:00Z,27.8217,-97.2040,0.0,5.3,118.0,6.5,'11111222,11111222,11111222' 
TCOON,ioos:station:TCOON:006:1,2009-03-08T01:00:00Z,27.8217,-97.2040,0.0,6.7,123.0,9.0,'11111222,11111222,11111222' 
TCOON,ioos:station:TCOON:006:1,2009-03-08T02:00:00Z,27.8217,-97.2040,0.0,6.9,136.0,8.5,'11111222,11111222,11111222' 
TCOON,ioos:station:TCOON:006:1,2009-03-08T03:00:00Z,27.8217,-97.2040,0.0,6.4,135.0,8.8,'11111222,11111222,11111222' 
TCOON,ioos:station:TCOON:006:1,2009-03-08T04:00:00Z,27.8217,-97.2040,0.0,6.9,137.0,10.2,'11111222,11111222,11111222' 
TCOON,ioos:station:TCOON:006:1,2009-03-08T05:00:00Z,27.8217,-97.2040,0.0,6.0,137.0,8.5,'11111222,11111222,11111222' 
TCOON,ioos:station:TCOON:006:1,2009-03-08T06:00:00Z,27.8217,-97.2040,0.0,7.5,142.0,9.2,'11111222,11111222,11111222' 
TCOON,ioos:station:TCOON:006:1,2009-03-08T07:00:00Z,27.8217,-97.2040,0.0,6.4,144.0,8.9,'11111222,11111222,11111222' 
TCOON,ioos:station:TCOON:006:1,2009-03-08T08:00:00Z,27.8217,-97.2040,0.0,4.9,150.0,7.0,'11111222,11111222,11111222' 
TCOON,ioos:station:TCOON:006:1,2009-03-08T09:00:00Z,27.8217,-97.2040,0.0,4.0,153.0,5.6,'11111222,11111222,11111222' 
TCOON,ioos:station:TCOON:006:1,2009-03-08T10:00:00Z,27.8217,-97.2040,0.0,3.2,156.0,3.7,'11111222,11111222,11111222' 
TCOON,ioos:station:TCOON:006:1,2009-03-08T11:00:00Z,27.8217,-97.2040,0.0,3.2,152.0,4.0,'11111222,11111222,11111222' 
TCOON,ioos:station:TCOON:006:1,2009-03-08T12:00:00Z,27.8217,-97.2040,0.0,5.3,145.0,6.6,'11111222,11111222,11111222' 
TCOON,ioos:station:TCOON:006:1,2009-03-08T13:00:00Z,27.8217,-97.2040,0.0,5.2,140.0,6.6,'11111222,11111222,11111222' 
TCOON,ioos:station:TCOON:006:1,2009-03-08T14:00:00Z,27.8217,-97.2040,0.0,3.8,113.0,5.4,'11111222,11111222,11111222' 
TCOON,ioos:station:TCOON:006:1,2009-03-08T15:00:00Z,27.8217,-97.2040,0.0,3.9,131.0,5.1,'11111222,11111222,11111222' 
TCOON,ioos:station:TCOON:006:1,2009-03-08T16:00:00Z,27.8217,-97.2040,0.0,3.7,126.0,6.1,'11111222,11111222,11111222' 
TCOON,ioos:station:TCOON:006:1,2009-03-08T17:00:00Z,27.8217,-97.2040,0.0,5.1,146.0,6.3,'11111222,11111222,11111222' 
TCOON,ioos:station:TCOON:006:1,2009-03-08T18:00:00Z,27.8217,-97.2040,0.0,5.6,148.0,6.8,'11111222,11111222,11111222' 
TCOON,ioos:station:TCOON:006:1,2009-03-08T19:00:00Z,27.8217,-97.2040,0.0,3.9,119.0,6.3,'11111222,11111222,11111222' 
TCOON,ioos:station:TCOON:006:1,2009-03-08T20:00:00Z,27.8217,-97.2040,0.0,3.7,108.0,6.4,'11111222,11111222,11111222' 
TCOON,ioos:station:TCOON:006:1,2009-03-08T21:00:00Z,27.8217,-97.2040,0.0,3.3,98.0,5.3,'11111222,11111222,11111222' 
TCOON,ioos:station:TCOON:006:1,2009-03-08T22:00:00Z,27.8217,-97.2040,0.0,4.1,90.0,5.6,'11111222,11111222,11111222' 
TCOON,ioos:station:TCOON:006:1,2009-03-08T23:00:00Z,27.8217,-97.2040,0.0,3.4,73.0,4.8,'11111222,11111222,11111222' 
TCOON,ioos:station:TCOON:006:1,2009-03-09T00:00:00Z,27.8217,-97.2040,0.0,4.9,77.0,6.8,'11111222,11111222,11111222' 
TCOON,ioos:station:TCOON:006:1,2009-03-09T01:00:00Z,27.8217,-97.2040,0.0,5.2,85.0,6.9,'11111222,11111222,11111222' 
TCOON,ioos:station:TCOON:006:1,2009-03-09T02:00:00Z,27.8217,-97.2040,0.0,5.5,92.0,6.6,'11111222,11111222,11111222' 
TCOON,ioos:station:TCOON:006:1,2009-03-09T03:00:00Z,27.8217,-97.2040,0.0,4.5,93.0,6.2,'11111222,11111222,11111222' 
TCOON,ioos:station:TCOON:006:1,2009-03-09T04:00:00Z,27.8217,-97.2040,0.0,4.2,108.0,7.0,'11111222,11111222,11111222' 
TCOON,ioos:station:TCOON:006:1,2009-03-09T05:00:00Z,27.8217,-97.2040,0.0,3.9,133.0,6.6,'11111222,11111222,11111222' 
TCOON,ioos:station:TCOON:006:1,2009-03-09T06:00:00Z,27.8217,-97.2040,0.0,4.8,139.0,6.2,'11111222,11111222,11111222' 
TCOON,ioos:station:TCOON:006:1,2009-03-09T07:00:00Z,27.8217,-97.2040,0.0,6.6,144.0,7.8,'11111222,11111222,11111222' 
TCOON,ioos:station:TCOON:006:1,2009-03-09T08:00:00Z,27.8217,-97.2040,0.0,6.2,145.0,7.8,'11111222,11111222,11111222' 
TCOON,ioos:station:TCOON:006:1,2009-03-09T09:00:00Z,27.8217,-97.2040,0.0,6.0,144.0,8.0,'11111222,11111222,11111222' 
TCOON,ioos:station:TCOON:006:1,2009-03-09T10:00:00Z,27.8217,-97.2040,0.0,5.7,145.0,7.2,'11111222,11111222,11111222' 
TCOON,ioos:station:TCOON:006:1,2009-03-09T11:00:00Z,27.8217,-97.2040,0.0,4.2,139.0,7.2,'11111222,11111222,11111222' 
TCOON,ioos:station:TCOON:006:1,2009-03-09T12:00:00Z,27.8217,-97.2040,0.0,4.3,153.0,5.4,'11111222,11111222,11111222' 